[[{"header":{"parameterUnit":"m.s-1","parameterCategory":1,"la1":30.2991,"la2":30.254,"lo1":-89.0895,"lo2":-89.0444,"dy":0.0017,"dx":0.0017,"nx":28,"ny":28,"refTime":"2025-05-21T09:00:00:Z","depth":0,"parameterNumber":2,"parameterNumberName":"U-component_of_WINDS"},"data":[0,0,0,0,0,0,0,0,0,0,0,0,0,0,0,0,0,0,0,0,0,0,0,0,0,0,0,0,0,0,0,0,0,0,0,0,0,0,0,0,0,0,0,0,0,0,0,0,0,0,0,0,0,0,0,0,0,0,3.5473,3.5473,0,3.5537,3.5538,3.5539,3.5482,3.5479,3.5477,3.5475,3.5541,3.5545,3.5549,0,0,0,0,0,0,0,0,0,0,0,0,0,3.53,3.5304,3.5472,3.5473,3.5474,3.5537,3.5538,3.5539,3.5482,3.5479,3.5476,3.5474,3.554,3.5545,3.5549,0,0,0,0,0,0,0,0,0,0,0,0,0,3.5371,3.5305,3.5472,3.5453,3.5452,3.5537,3.5538,3.5539,3.5483,3.5479,3.5476,3.5472,3.5538,3.5544,3.555,3.5657,0,0,3.5568,3.5571,0,0,0,0,0,0,0,0,3.5367,3.5377,3.5455,3.5455,3.5454,3.5498,3.5502,3.5579,3.5484,3.5471,3.5475,3.5471,3.553,3.5536,3.5556,3.566,3.5663,3.5569,3.5572,3.5575,3.5577,0,0,0,0,0,0,0,3.5362,3.5374,3.5498,3.5457,3.5456,3.5442,3.5448,3.5516,3.5519,3.5472,3.5468,3.5476,3.5529,3.555,3.5557,3.5664,3.5569,3.5574,3.5577,3.558,3.5859,3.5862,0,0,0,0,0,0,3.5359,3.5371,3.5496,3.55,3.5401,3.5448,3.5455,3.5487,3.5518,3.552,3.5479,3.5474,3.5542,3.555,3.5559,3.5686,3.5575,3.558,3.5584,3.5855,3.586,3.5864,0,0,0,0,0,0,3.5356,3.5371,3.5493,3.5434,3.5449,3.5454,3.5492,3.549,3.5512,3.5524,3.5524,3.5501,3.554,3.5551,3.5633,3.5687,3.5583,3.5588,3.585,3.5856,3.5862,3.594,0,0,0,0,0,0,3.5351,3.537,3.541,3.5436,3.5452,3.5566,3.5495,3.5494,3.5522,3.5515,3.5544,3.5546,3.5538,3.5624,3.5639,3.5694,3.5593,3.5846,3.5853,3.586,3.5933,3.5948,3.5961,0,0,0,0,0,3.5345,3.543,3.5413,3.5428,3.5503,3.5569,3.5579,3.5568,3.5527,3.5568,3.5576,3.5545,3.568,3.5633,3.5649,3.5707,3.5842,3.5851,3.5859,3.5927,3.5945,3.5961,0,0,0,0,0,0,3.5411,3.5433,3.5414,3.551,3.5538,3.556,3.561,3.5588,3.5628,3.562,3.5605,3.5612,3.5698,3.5711,3.5659,3.5812,3.5754,3.5766,3.58,3.5818,3.5832,3.5826,3.5598,0,0,0,0,0,3.5437,3.5489,3.5505,3.5588,3.5603,3.5605,3.5633,3.5622,3.5651,3.5663,3.5677,3.5706,3.5755,3.5787,3.5833,3.5935,3.594,3.5982,3.5997,3.6008,3.6019,3.6073,3.6092,3.5892,3.5892,3.5892,0,0,3.549,3.5509,3.5542,3.5602,3.5622,3.5677,3.5615,3.5675,3.5715,3.5672,3.575,3.5762,3.5793,3.5886,3.5927,3.5899,3.6075,3.6019,3.6028,3.6032,3.6084,3.6103,3.612,3.5898,3.5897,3.5896,0,0,3.5615,3.5635,3.5705,3.5728,3.576,3.5761,3.5778,3.5803,3.5809,3.5887,3.5856,3.5904,3.5988,3.6012,3.6035,3.6171,3.6144,3.6186,3.626,3.6313,3.6329,3.6343,3.6391,3.6408,3.6197,3.6197,3.6197,0,3.5677,3.5757,3.5745,3.5807,3.5834,3.5798,3.587,3.5892,3.5938,3.5958,3.5925,3.6031,3.605,3.6147,3.618,3.6201,3.622,3.6182,3.6328,3.6342,3.6354,3.64,3.6418,3.6202,3.6201,3.6201,3.62,0,3.5832,3.5889,3.5942,3.5987,3.6021,3.6088,3.6085,3.6121,3.6107,3.6111,3.6192,3.6214,3.6263,3.6285,3.6273,3.6382,3.6363,3.633,3.6272,3.6378,3.6421,3.6438,3.6209,3.6207,3.6206,3.6205,0,0,3.5999,3.6037,3.6056,3.6077,3.611,3.6154,3.6219,3.6268,3.6298,3.6332,3.6386,3.6459,3.6428,3.6455,3.6445,3.6493,3.6598,3.6453,3.6454,3.6479,3.6719,3.6743,3.6763,3.6581,3.6584,3.6587,3.6716,0,3.6124,3.6238,3.6229,3.6336,3.6388,3.6355,3.6413,3.644,3.6446,3.6491,3.6498,3.6549,3.6505,3.6521,3.6567,3.6575,3.6646,3.6566,3.6631,3.6634,3.6623,3.6785,3.681,3.6931,3.6732,3.6735,3.6737,0,3.6285,3.6324,3.6437,3.6463,3.6484,3.6536,3.658,3.6624,3.6654,3.6655,3.6685,3.6668,3.6734,3.6676,3.6767,3.6713,3.6739,3.6748,3.6752,3.6757,3.6691,3.6793,3.6969,3.6986,3.6763,3.6761,3.6759,0,3.6394,3.6475,3.6553,3.6571,3.6604,3.6641,3.6656,3.6683,3.6713,3.6752,3.6771,3.6817,3.6842,3.6878,3.6874,3.6832,3.6967,3.6908,3.6969,3.6969,3.6997,3.6996,3.7179,3.7017,3.7017,3.7016,3.7016,0,3.6534,3.6604,3.6602,3.665,3.6728,3.6717,3.6795,3.6806,3.683,3.688,3.6855,3.6902,3.6893,3.6941,3.6938,3.7014,3.7025,3.7028,3.7026,3.703,3.7029,3.7045,3.7036,3.7021,3.702,3.7019,3.7018,0,3.6668,3.667,3.6752,3.6777,3.6785,3.6841,3.6862,3.6907,3.6912,3.6975,3.6989,3.6996,3.7051,3.705,3.7112,3.711,3.7203,3.7192,3.7193,3.719,3.7251,3.7245,3.745,3.7476,3.7299,3.73,3.7302,0,3.6757,3.681,3.6841,3.6872,3.689,3.6941,3.6971,3.6964,3.6996,3.7036,3.7076,3.7128,3.7169,3.7258,3.7269,3.7316,3.7305,3.7374,3.7312,3.7314,3.7305,3.7302,3.7307,3.7386,3.7388,3.739,3.7391,0,3.6914,3.6912,3.6957,3.7003,3.704,3.7075,3.7108,3.7135,3.7131,3.717,3.7225,3.7257,3.732,3.7372,3.7418,3.7434,3.7412,3.7411,3.7427,3.743,3.7428,3.7429,3.7224,3.7405,3.7404,3.7403,3.7402,3.7402,3.7027,3.7073,3.7102,3.7153,3.7177,3.7208,3.7252,3.7262,3.7308,3.7359,3.7352,3.7414,3.7443,3.7503,3.7523,3.7571,3.7547,3.7571,3.7577,3.7583,3.7589,3.7422,3.758,3.7579,3.7579,3.7579,3.7578,0,3.7182,3.7199,3.7246,3.7293,3.7333,3.7309,3.7345,3.738,3.7434,3.7464,3.7505,3.7569,3.762,3.7635,3.7684,3.772,3.7711,3.7733,3.7729,3.7733,3.7608,3.7589,3.7739,3.7739,3.7739,3.7739,3.7739,3.7739,3.7267,3.7343,3.7345,3.7433,3.7449,3.7509,3.7532,3.756,3.7584,3.7656,3.7698,3.7708,3.7732,3.7783,3.7828,3.7832,3.785,3.7876,3.7875,3.7758,3.7742,3.7726,3.7708,3.7881,3.7881,3.7996,3.7997,3.7998]},{"header":{"parameterUnit":"m.s-1","parameterCategory":1,"la1":30.2991,"la2":30.254,"lo1":-89.0895,"lo2":-89.0444,"dy":0.0017,"dx":0.0017,"nx":28,"ny":28,"refTime":"2025-05-21T09:00:00:Z","depth":0,"parameterNumber":3,"parameterNumberName":"V-component_of_WINDS"},"data":[0,0,0,0,0,0,0,0,0,0,0,0,0,0,0,0,0,0,0,0,0,0,0,0,0,0,0,0,0,0,0,0,0,0,0,0,0,0,0,0,0,0,0,0,0,0,0,0,0,0,0,0,0,0,0,0,0,0,0.0697,0.0697,0,0.0733,0.0734,0.0734,0.0744,0.0744,0.0743,0.0743,0.0785,0.0786,0.0787,0,0,0,0,0,0,0,0,0,0,0,0,0,0.0639,0.064,0.0697,0.0697,0.0698,0.0733,0.0734,0.0734,0.0744,0.0744,0.0743,0.0743,0.0784,0.0786,0.0787,0,0,0,0,0,0,0,0,0,0,0,0,0,0.0668,0.064,0.0697,0.0707,0.0708,0.0733,0.0734,0.0735,0.0744,0.0744,0.0743,0.0743,0.0784,0.0786,0.0788,0.0807,0,0,0.0794,0.0795,0,0,0,0,0,0,0,0,0.0667,0.0671,0.0705,0.0706,0.0708,0.0734,0.0729,0.0759,0.0744,0.073,0.0743,0.0743,0.0768,0.0772,0.0779,0.0809,0.0811,0.0794,0.0795,0.0796,0.0797,0,0,0,0,0,0,0,0.0665,0.0669,0.0712,0.0705,0.0707,0.071,0.0714,0.0734,0.0751,0.0732,0.0732,0.0736,0.0769,0.0777,0.078,0.0811,0.0794,0.0796,0.0797,0.0798,0.0858,0.0859,0,0,0,0,0,0,0.066,0.0667,0.071,0.0713,0.0686,0.0712,0.0716,0.0726,0.0751,0.0754,0.0737,0.0737,0.0774,0.0778,0.0782,0.0806,0.0796,0.0798,0.0799,0.0858,0.0858,0.0859,0,0,0,0,0,0,0.0659,0.0664,0.0709,0.069,0.0696,0.0713,0.0724,0.0727,0.0735,0.0755,0.0758,0.0742,0.0774,0.0779,0.08,0.0808,0.0799,0.0801,0.0857,0.0858,0.0859,0.0855,0,0,0,0,0,0,0.0657,0.0664,0.067,0.069,0.0697,0.0726,0.0724,0.0728,0.0738,0.0738,0.076,0.0764,0.0774,0.0797,0.0802,0.081,0.0802,0.0857,0.0858,0.0858,0.0854,0.0855,0.0856,0,0,0,0,0,0.0655,0.0669,0.0671,0.0676,0.0706,0.0726,0.073,0.0741,0.0738,0.0746,0.0758,0.0763,0.0806,0.0799,0.0805,0.0814,0.0857,0.0858,0.0858,0.0854,0.0855,0.0856,0,0,0,0,0,0,0.0651,0.0672,0.0674,0.0694,0.0708,0.0728,0.0737,0.0741,0.0758,0.0757,0.0771,0.0776,0.0796,0.0807,0.08,0.0834,0.0831,0.0833,0.0826,0.0827,0.0828,0.0825,0.0804,0,0,0,0,0,0.0652,0.0666,0.0684,0.07,0.0706,0.072,0.073,0.0736,0.0752,0.0759,0.0773,0.0789,0.0806,0.0817,0.0834,0.0855,0.0861,0.0864,0.0865,0.0865,0.0867,0.088,0.0882,0.0862,0.0862,0.0862,0,0,0.0655,0.0668,0.0676,0.0699,0.0711,0.0726,0.0726,0.0742,0.0753,0.0762,0.0782,0.0793,0.0812,0.0833,0.0843,0.0843,0.0874,0.0867,0.0867,0.0869,0.0881,0.0883,0.0884,0.0863,0.0863,0.0862,0,0,0.0669,0.0679,0.0694,0.0705,0.0722,0.0731,0.0734,0.0753,0.076,0.0781,0.0787,0.0802,0.0831,0.0844,0.0854,0.0871,0.0876,0.0876,0.088,0.0892,0.0894,0.0895,0.0902,0.0904,0.0878,0.0878,0.0878,0,0.0671,0.0692,0.0701,0.0716,0.0726,0.0733,0.0748,0.0759,0.0781,0.0788,0.0787,0.0823,0.0836,0.086,0.0864,0.0872,0.0877,0.0874,0.0893,0.0894,0.0896,0.0902,0.0904,0.0878,0.0878,0.0878,0.0878,0,0.0694,0.0709,0.0719,0.0738,0.0749,0.0764,0.0776,0.0787,0.0792,0.0801,0.0822,0.0838,0.0858,0.0864,0.087,0.0889,0.0889,0.089,0.0888,0.0897,0.0903,0.0906,0.0877,0.0877,0.0878,0.0878,0,0,0.0707,0.073,0.0734,0.0742,0.0761,0.0773,0.0789,0.0806,0.0815,0.083,0.0844,0.0868,0.0868,0.088,0.0888,0.0898,0.091,0.0898,0.0899,0.09,0.0933,0.0932,0.0935,0.0913,0.0914,0.0914,0.0932,0,0.0723,0.075,0.0758,0.078,0.0794,0.08,0.0814,0.0827,0.0836,0.085,0.0861,0.0877,0.0877,0.0884,0.0894,0.0907,0.0917,0.0905,0.0928,0.0928,0.0923,0.0938,0.0938,0.0953,0.0934,0.0934,0.0935,0,0.0746,0.0759,0.0783,0.0799,0.0805,0.0817,0.0834,0.0847,0.0862,0.0868,0.088,0.0887,0.0904,0.09,0.0924,0.0916,0.0926,0.0933,0.0934,0.0937,0.0933,0.0942,0.0959,0.0961,0.0938,0.0938,0.0938,0,0.0753,0.0777,0.0794,0.0802,0.0821,0.0829,0.0838,0.0853,0.0863,0.0878,0.0884,0.0902,0.0911,0.0925,0.0936,0.0932,0.096,0.0957,0.0966,0.0966,0.0972,0.0972,0.0991,0.0977,0.0977,0.0977,0.0977,0,0.0771,0.0785,0.0798,0.0809,0.0825,0.0834,0.085,0.086,0.0872,0.0886,0.0892,0.0905,0.0918,0.0933,0.0942,0.0961,0.0965,0.0971,0.0973,0.0971,0.097,0.0978,0.0977,0.0978,0.0977,0.0977,0.0977,0,0.0783,0.0792,0.0811,0.0826,0.0831,0.0842,0.0856,0.0867,0.0876,0.0893,0.0897,0.0911,0.0929,0.0941,0.0963,0.0969,0.099,0.0992,0.0984,0.0986,0.0994,0.0994,0.102,0.1024,0.1006,0.1007,0.1007,0,0.0793,0.0804,0.0821,0.0829,0.0837,0.0851,0.0861,0.087,0.088,0.0898,0.0907,0.0924,0.0939,0.0966,0.098,0.0997,0.1,0.1008,0.1003,0.1,0.1001,0.1,0.1001,0.1009,0.1009,0.1009,0.1009,0,0.0812,0.0816,0.0829,0.0843,0.0854,0.0866,0.0879,0.0885,0.0897,0.0908,0.0925,0.0936,0.0958,0.0976,0.0994,0.1004,0.1009,0.101,0.1013,0.1011,0.1007,0.101,0.0987,0.101,0.101,0.101,0.101,0.101,0.0824,0.0834,0.0847,0.0861,0.0871,0.0882,0.0893,0.0902,0.0916,0.0933,0.0938,0.0956,0.0971,0.0996,0.1006,0.1021,0.102,0.1025,0.1026,0.1027,0.1027,0.1003,0.1024,0.1024,0.1024,0.1024,0.1024,0,0.0843,0.0851,0.0864,0.088,0.0892,0.0893,0.0906,0.0916,0.0931,0.0944,0.0957,0.0977,0.0993,0.1007,0.1025,0.1034,0.1036,0.1038,0.1038,0.104,0.1026,0.1022,0.1036,0.1036,0.1036,0.1036,0.1036,0.1036,0.0855,0.0871,0.0876,0.0898,0.0906,0.0922,0.093,0.094,0.095,0.0971,0.0984,0.0993,0.1006,0.1024,0.104,0.1043,0.105,0.1051,0.1056,0.1043,0.1041,0.104,0.1036,0.1052,0.1052,0.1068,0.1068,0.1069]}]]